{"data":{"norad_id":68754,"intl_designator":"2026-083B","name":"COSMOS 2609","alt_names":[],"object_type":"PAYLOAD","status":"ACTIVE","operator":null,"country":"CIS","launch_date":"2026-04-16","launch_site_code":"PLMSC","launch_vehicle":null,"mission":null,"orbit_class":"UNKNOWN","rcs_meters":null,"size_class":null,"mass_kg":null,"dimensions":null,"purposes":[],"wikipedia_slug":null,"has_3d_model":false,"image_url":null,"decayed_at":null,"tle_current":{"epoch":"2026-09-19T23:08:21.935328Z","epoch_age_seconds":105869,"freshness":"FRESH","line1":"1 68754U 26083B   26262.96414277  .00001382  00000+0  99945-4 0  9990","line2":"2 68754  98.1357  57.0189 0012673  71.9487 288.3118 15.05810179 23496","mean_motion":15.05810179,"eccentricity":0.0012673,"inclination_deg":98.1357,"raan_deg":57.0189,"arg_perigee_deg":71.9487,"mean_anomaly_deg":288.3118,"bstar":9.9945e-5,"rev_number":2349,"period_min":95.629583335417,"perigee_km":540.24107849748,"apogee_km":557.79865028596,"semimajor_km":6927.1568643917,"source":"CELESTRAK","updated_at":"2026-09-20T09:00:24.451613Z"}}}